EN

Hourly Weather Altinho

Today, 18 January, Monday

Time Temperature Precipitation Wind Pressure Humidity
00:00 +22°C° 0 mm 3 mps 720 mmHg 93%
01:00 +22°C° 0 mm 3 mps 720 mmHg 94%
02:00 +21°C° 0 mm 3 mps 720 mmHg 95%
03:00 +21°C° 0 mm 2 mps 719 mmHg 96%
04:00 +22°C° 0 mm 1 mps 719 mmHg 96%
05:00 +22°C° 0 mm 1 mps 719 mmHg 95%
06:00 +22°C° 0 mm 1 mps 720 mmHg 94%
07:00 +22°C° 0 mm 1 mps 720 mmHg 94%
08:00 +24°C° 0 mm 2 mps 720 mmHg 81%
09:00 +27°C° 0 mm 3 mps 721 mmHg 68%
10:00 +29°C° 0 mm 4 mps 721 mmHg 55%
11:00 +30°C° 0 mm 4 mps 721 mmHg 50%
12:00 +33°C° 0 mm 5 mps 721 mmHg 44%
13:00 +34°C° 0 mm 5 mps 721 mmHg 39%
14:00 +34°C° 0 mm 5 mps 720 mmHg 38%
15:00 +34°C° 0 mm 5 mps 720 mmHg 38%
16:00 +34°C° 0 mm 6 mps 719 mmHg 37%
17:00 +32°C° 0 mm 6 mps 719 mmHg 48%
18:00 +29°C° 0 mm 6 mps 719 mmHg 60%
19:00 +26°C° 0 mm 6 mps 719 mmHg 71%
20:00 +25°C° 0 mm 5 mps 720 mmHg 77%
21:00 +23°C° 0 mm 4 mps 720 mmHg 83%
22:00 +24°C° 0 mm 3 mps 720 mmHg 89%
23:00 +22°C° 0.1 mm 3 mps 720 mmHg 90%

Tomorrow, 19 January, Tuesday

Time Temperature Precipitation Wind Pressure Humidity
00:00 +22°C° 0.1 mm 3 mps 720 mmHg 91%
01:00 +23°C° 0.1 mm 2 mps 721 mmHg 91%
02:00 +23°C° 0.1 mm 2 mps 720 mmHg 93%
03:00 +23°C° 0.1 mm 1 mps 720 mmHg 94%
04:00 +22°C° 0.1 mm 1 mps 719 mmHg 96%
05:00 +23°C° 0 mm 1 mps 720 mmHg 95%
06:00 +23°C° 0 mm 1 mps 720 mmHg 93%
07:00 +23°C° 0 mm 1 mps 721 mmHg 92%
08:00 +25°C° 0 mm 2 mps 721 mmHg 81%
09:00 +27°C° 0 mm 3 mps 721 mmHg 70%
10:00 +29°C° 0 mm 4 mps 722 mmHg 59%
11:00 +30°C° 0 mm 4 mps 721 mmHg 54%
12:00 +33°C° 0 mm 4 mps 721 mmHg 48%
13:00 +34°C° 0 mm 5 mps 721 mmHg 43%
14:00 +33°C° 0.2 mm 5 mps 721 mmHg 46%
15:00 +33°C° 0.2 mm 5 mps 720 mmHg 48%
16:00 +32°C° 0.2 mm 5 mps 719 mmHg 51%
17:00 +29°C° 0.1 mm 5 mps 719 mmHg 57%
18:00 +28°C° 0.1 mm 5 mps 720 mmHg 63%
19:00 +27°C° 0.1 mm 5 mps 720 mmHg 69%
20:00 +26°C° 0 mm 4 mps 720 mmHg 75%
21:00 +25°C° 0 mm 4 mps 720 mmHg 82%
22:00 +24°C° 0 mm 3 mps 721 mmHg 89%
23:00 +23°C° 0 mm 2 mps 721 mmHg 91%

Day after tomorrow, 20 January, Wednesday

Time Temperature Precipitation Wind Pressure Humidity
00:00 +23°C° 0 mm 2 mps 721 mmHg 93%
01:00 +23°C° 0 mm 1 mps 721 mmHg 95%
02:00 +23°C° 0 mm 1 mps 720 mmHg 96%
03:00 +22°C° 0 mm 1 mps 720 mmHg 96%
04:00 +22°C° 0 mm 1 mps 719 mmHg 97%
05:00 +22°C° 0 mm 1 mps 720 mmHg 96%
06:00 +22°C° 0 mm 1 mps 720 mmHg 95%
07:00 +23°C° 0 mm 1 mps 721 mmHg 95%
08:00 +25°C° 0 mm 1 mps 721 mmHg 84%
09:00 +26°C° 0 mm 2 mps 721 mmHg 73%
10:00 +28°C° 0 mm 3 mps 722 mmHg 62%
11:00 +30°C° 0 mm 3 mps 721 mmHg 55%
12:00 +31°C° 0 mm 3 mps 721 mmHg 47%
13:00 +34°C° 0 mm 4 mps 721 mmHg 40%
14:00 +34°C° 0.1 mm 4 mps 720 mmHg 39%
15:00 +34°C° 0.1 mm 5 mps 720 mmHg 39%
16:00 +33°C° 0.1 mm 6 mps 719 mmHg 39%
17:00 +32°C° 0.1 mm 6 mps 719 mmHg 48%
18:00 +29°C° 0.1 mm 5 mps 719 mmHg 57%
19:00 +27°C° 0.1 mm 5 mps 720 mmHg 66%
20:00 +26°C° 0 mm 4 mps 720 mmHg 73%
21:00 +25°C° 0 mm 3 mps 720 mmHg 80%
22:00 +24°C° 0 mm 3 mps 721 mmHg 87%
23:00 +24°C° 0 mm 2 mps 721 mmHg 89%

21 January, Thursday

Time Temperature Precipitation Wind Pressure Humidity
00:00 +23°C° 0 mm 2 mps 721 mmHg 91%
01:00 +23°C° 0 mm 2 mps 720 mmHg 94%
02:00 +23°C° 0 mm 1 mps 720 mmHg 95%
03:00 +22°C° 0 mm 1 mps 720 mmHg 96%
04:00 +22°C° 0 mm 1 mps 719 mmHg 97%
05:00 +22°C° 0 mm 1 mps 720 mmHg 96%
06:00 +23°C° 0 mm 1 mps 720 mmHg 95%
07:00 +23°C° 0 mm 1 mps 720 mmHg 94%
08:00 +25°C° 0 mm 2 mps 721 mmHg 83%
09:00 +27°C° 0 mm 3 mps 722 mmHg 72%
10:00 +28°C° 0 mm 4 mps 722 mmHg 61%
11:00 +29°C° 0.2 mm 4 mps 722 mmHg 58%
12:00 +30°C° 0.2 mm 5 mps 721 mmHg 54%
13:00 +32°C° 0.2 mm 5 mps 721 mmHg 50%
14:00 +32°C° 1.7 mm 5 mps 721 mmHg 54%
15:00 +30°C° 1.7 mm 5 mps 720 mmHg 58%
16:00 +29°C° 1.7 mm 6 mps 720 mmHg 61%
17:00 +28°C° 0.6 mm 5 mps 720 mmHg 64%
18:00 +27°C° 0.6 mm 5 mps 721 mmHg 67%
19:00 +26°C° 0.6 mm 4 mps 721 mmHg 70%
20:00 +25°C° 0 mm 4 mps 721 mmHg 77%
21:00 +24°C° 0 mm 3 mps 722 mmHg 84%
22:00 +22°C° 0 mm 3 mps 722 mmHg 92%
23:00 +23°C° 0 mm 2 mps 721 mmHg 93%

22 January, Friday

Time Temperature Precipitation Wind Pressure Humidity
00:00 +21°C° 0 mm 2 mps 721 mmHg 95%
01:00 +21°C° 0 mm 2 mps 721 mmHg 96%
02:00 +22°C° 0 mm 1 mps 721 mmHg 96%
03:00 +22°C° 0 mm 1 mps 720 mmHg 97%
04:00 +20°C° 0 mm 0 mps 720 mmHg 97%
05:00 +20°C° 0 mm 0 mps 721 mmHg 96%
06:00 +20°C° 0 mm 0 mps 721 mmHg 94%
07:00 +21°C° 0 mm 0 mps 721 mmHg 93%
08:00 +24°C° 0.1 mm 1 mps 722 mmHg 85%
09:00 +26°C° 0.1 mm 2 mps 722 mmHg 77%
10:00 +27°C° 0.1 mm 3 mps 723 mmHg 70%
11:00 +29°C° 0 mm 4 mps 723 mmHg 62%
12:00 +30°C° 0 mm 4 mps 722 mmHg 54%
13:00 +33°C° 0 mm 5 mps 722 mmHg 46%
14:00 +33°C° 0.3 mm 5 mps 722 mmHg 49%
15:00 +32°C° 0.3 mm 5 mps 721 mmHg 51%
16:00 +30°C° 0.3 mm 6 mps 721 mmHg 54%
17:00 +29°C° 0.3 mm 5 mps 721 mmHg 60%
18:00 +28°C° 0.3 mm 5 mps 721 mmHg 66%
19:00 +26°C° 0.3 mm 4 mps 721 mmHg 72%
20:00 +25°C° 0 mm 4 mps 722 mmHg 77%
21:00 +24°C° 0 mm 3 mps 722 mmHg 83%
22:00 +24°C° 0 mm 3 mps 722 mmHg 89%
23:00 +23°C° 0 mm 2 mps 722 mmHg 91%

23 January, Saturday

Time Temperature Precipitation Wind Pressure Humidity
00:00 +23°C° 0 mm 2 mps 722 mmHg 94%
01:00 +23°C° 0 mm 1 mps 721 mmHg 96%
02:00 +22°C° 0 mm 1 mps 721 mmHg 96%
03:00 +22°C° 0 mm 1 mps 721 mmHg 97%
04:00 +22°C° 0 mm 1 mps 720 mmHg 97%
05:00 +22°C° 0 mm 1 mps 721 mmHg 96%
06:00 +23°C° 0 mm 1 mps 721 mmHg 94%
07:00 +23°C° 0 mm 1 mps 721 mmHg 93%
08:00 +25°C° 0 mm 2 mps 722 mmHg 84%
09:00 +26°C° 0 mm 3 mps 722 mmHg 75%
10:00 +28°C° 0 mm 4 mps 723 mmHg 66%
11:00 +28°C° 0.5 mm 4 mps 722 mmHg 65%
12:00 +29°C° 0.5 mm 5 mps 722 mmHg 65%
13:00 +29°C° 0.5 mm 5 mps 721 mmHg 64%
14:00 +29°C° 0.6 mm 5 mps 721 mmHg 62%
15:00 +30°C° 0.6 mm 5 mps 721 mmHg 60%
16:00 +30°C° 0.6 mm 5 mps 720 mmHg 58%
17:00 +28°C° 0.3 mm 5 mps 720 mmHg 65%
18:00 +27°C° 0.3 mm 5 mps 720 mmHg 72%
19:00 +26°C° 0.3 mm 5 mps 721 mmHg 80%
20:00 +25°C° 0 mm 4 mps 721 mmHg 84%
21:00 +24°C° 0 mm 3 mps 721 mmHg 88%
22:00 +22°C° 0 mm 3 mps 722 mmHg 92%
23:00 +23°C° 0 mm 2 mps 721 mmHg 93%
Show more